Weather in Nikhaloy

Russia / Chechen Republic     42°50′32″N   45°39′50″E
temp.,
°C
wind,
m/s
gust,
m/s
humid.,
%
clouds,
%
prec.,
mm/h
press.,
hPa
HPBL,
m
4 july, mon
mon400:00+9ssw118978 0.3 101827
03:00+7ssw119131 0.6 101820
06:00+9ssw12883 0.0 101958
09:00+14nnw23469 0.0 10181621
12:00+17n334136 0.0 10162101
15:00+17n324652 0.0 10161701
18:00+14nnw226871 0.0 1017340
21:00+9s22861 0.0 101928
5 july, tue
tue500:00+8s33790 0.0 101937
03:00+8s33750 0.0 101834
06:00+11s22700 0.0 101867
09:00+17n32490 0.0 10161410
12:00+19n434211 0.0 10162037
15:00+19n334674 0.0 10161808
18:00+16nnw226439 0.0 1017299
21:00+10s32790 0.1 101929
6 july, wed
wed600:00+9s33780 0.0 101940
03:00+9s33720 0.0 101938
06:00+12s22680 0.0 101862
09:00+18nne22490 0.0 10161338
12:00+20n434762 0.0 10151786
15:00+19nnw225697 0.1 10161321
18:00+17nnw11680 0.0 1015352
21:00+11s22840 0.0 101825
7 july, thu
thu700:00+10s33710 0.0 101749
03:00+10s44710 0.0 101764
06:00+12s34701 0.0 1016107
09:00+20nne224267 0.0 10131132
12:00+21n444823 0.0 10121357
15:00+19n326757 1.0 1013996
18:00+16nnw238327 1.3 1014313
21:00+12s229430 2.3 101520
8 july, fri
fri800:00+10s348875 0.0 101553
03:00+10s348647 0.0 101449
06:00+13sse237986 0.0 101468
09:00+19n225396 0.0 1012938
12:00+17nnw2280100 1.4 1013413
15:00+18ene127883 3.3 1012605
18:00+16se119068 2.3 101378
21:00+12s339184 2.9 101441